ELY859 LLBG-EDDF

Flight info

Callsign ELY859
Flight time N/A
Altitude 34000
Route SUVAS DCT TEZAK L324 SAFTA DCT MAROS DCT LUTIG DCT BENEM UN127 RIKSO DCT DISOR DCT LONTA UL608 DOLEV DCT YUYUH DCT SIMBA DCT AKINI T161 DEBHI DEBHI1B
Aircraft B738/M-SDE2E3FGHIRWXY/LB1

Departure

Time N/A
Airport Ben Gurion International Airport (LLBG)

Arrival

Time 2026-05-07 13:50
Airport Frankfurt Main Airport (EDDF)
Time Latitude Longitude Altitude Speed Heading
2026-05-07 10:15 34.48409 31.01262 34127 ft 419 kts 314°
2026-05-07 10:15 34.52974 30.96861 34128 ft 421 kts 314°
2026-05-07 10:16 34.57578 30.92418 34128 ft 422 kts 314°
2026-05-07 10:16 34.62144 30.88012 34127 ft 421 kts 314°
2026-05-07 10:17 34.66735 30.83627 34127 ft 421 kts 314°
2026-05-07 10:17 34.71305 30.79261 34128 ft 421 kts 314°
2026-05-07 10:18 34.75915 30.74848 34129 ft 422 kts 314°
2026-05-07 10:18 34.80481 30.70472 34128 ft 421 kts 314°
2026-05-07 10:19 34.85092 30.66046 34128 ft 422 kts 314°
2026-05-07 10:19 34.89665 30.61649 34125 ft 422 kts 315°
2026-05-07 10:20 34.94321 30.57137 34127 ft 432 kts 315°
2026-05-07 10:20 34.99048 30.52533 34129 ft 442 kts 317°
2026-05-07 10:21 35.03883 30.47823 34134 ft 452 kts 319°
2026-05-07 10:21 35.08818 30.43031 34127 ft 455 kts 319°
2026-05-07 10:22 35.13733 30.38264 34127 ft 452 kts 319°
2026-05-07 10:22 35.18642 30.33497 34128 ft 452 kts 318°
2026-05-07 10:23 35.23559 30.28716 34128 ft 452 kts 318°
2026-05-07 10:23 35.28436 30.23967 34128 ft 452 kts 318°
2026-05-07 10:24 35.33341 30.19184 34127 ft 452 kts 318°
2026-05-07 10:24 35.38247 30.14392 34128 ft 452 kts 318°
2026-05-07 10:25 35.43156 30.09590 34128 ft 452 kts 318°
2026-05-07 10:25 35.48055 30.04790 34128 ft 452 kts 318°
2026-05-07 10:26 35.52958 29.99978 34128 ft 452 kts 318°
2026-05-07 10:26 35.57747 29.95068 34132 ft 451 kts 316°
2026-05-07 10:27 35.62539 29.90080 34137 ft 451 kts 317°
2026-05-07 10:27 35.67304 29.85129 34142 ft 451 kts 317°
2026-05-07 10:28 35.72105 29.80133 34148 ft 451 kts 317°
2026-05-07 10:28 35.76887 29.75153 34154 ft 451 kts 317°
2026-05-07 10:29 35.81672 29.70163 34155 ft 451 kts 317°
2026-05-07 10:29 35.86466 29.65155 34155 ft 451 kts 317°
2026-05-07 10:30 35.93631 29.57655 34155 ft 451 kts 317°
2026-05-07 10:30 35.98411 29.52642 34155 ft 451 kts 317°
2026-05-07 10:31 36.03168 29.47645 34155 ft 451 kts 317°
2026-05-07 10:31 36.07942 29.42621 34155 ft 451 kts 317°
2026-05-07 10:32 36.12717 29.37589 34155 ft 451 kts 317°
2026-05-07 10:32 36.17446 29.32597 34155 ft 451 kts 316°
2026-05-07 10:33 36.22217 29.27585 34155 ft 451 kts 316°
2026-05-07 10:33 36.26996 29.22581 34155 ft 451 kts 316°
2026-05-07 10:34 36.31767 29.17571 34155 ft 451 kts 316°
2026-05-07 10:34 36.36564 29.12524 34155 ft 451 kts 316°
2026-05-07 10:35 36.41317 29.07517 34155 ft 451 kts 316°
2026-05-07 10:35 36.46109 29.02458 34155 ft 451 kts 316°
2026-05-07 10:36 36.50848 28.97449 34127 ft 448 kts 316°
2026-05-07 10:36 36.55554 28.92470 34128 ft 443 kts 316°
2026-05-07 10:37 36.60211 28.87535 34128 ft 440 kts 317°
2026-05-07 10:37 36.64863 28.82597 34128 ft 437 kts 317°
2026-05-07 10:38 36.69457 28.77712 34128 ft 436 kts 317°
2026-05-07 10:38 36.74050 28.72848 34128 ft 436 kts 317°
2026-05-07 10:39 36.78665 28.67957 34128 ft 437 kts 317°
2026-05-07 10:39 36.83281 28.63054 34128 ft 437 kts 317°
2026-05-07 10:40 36.87902 28.58137 34127 ft 437 kts 317°
2026-05-07 10:40 36.92495 28.53242 34128 ft 437 kts 317°
2026-05-07 10:41 36.97115 28.48309 34128 ft 437 kts 317°
2026-05-07 10:41 37.01732 28.43374 34127 ft 437 kts 317°
2026-05-07 10:42 37.06337 28.38442 34127 ft 437 kts 317°
2026-05-07 10:42 37.10936 28.33489 34128 ft 437 kts 315°
2026-05-07 10:43 37.15511 28.28520 34128 ft 437 kts 315°
2026-05-07 10:43 37.20106 28.23563 34128 ft 437 kts 316°
2026-05-07 10:44 37.24698 28.18613 34128 ft 437 kts 316°
2026-05-07 10:44 37.29316 28.13623 34128 ft 437 kts 316°
2026-05-07 10:45 37.33880 28.08664 34128 ft 437 kts 315°
2026-05-07 10:45 37.38455 28.03668 34128 ft 437 kts 315°
2026-05-07 10:46 37.43016 27.98682 34128 ft 437 kts 315°
2026-05-07 10:46 37.47585 27.93679 34128 ft 437 kts 315°
2026-05-07 10:47 37.52159 27.88661 34128 ft 437 kts 315°
2026-05-07 10:47 37.56735 27.83634 34128 ft 437 kts 315°
2026-05-07 10:48 37.61302 27.78608 34128 ft 437 kts 315°
2026-05-07 10:48 37.65845 27.73599 34128 ft 437 kts 315°
2026-05-07 10:49 37.70423 27.68545 34128 ft 437 kts 315°
2026-05-07 10:49 37.74971 27.63515 34128 ft 437 kts 315°
2026-05-07 10:50 37.79530 27.58463 34128 ft 437 kts 315°
2026-05-07 10:50 37.84078 27.53415 34127 ft 437 kts 315°
2026-05-07 10:51 37.88637 27.48347 34128 ft 437 kts 316°
2026-05-07 10:51 37.93220 27.43311 34127 ft 437 kts 316°
2026-05-07 10:52 37.97791 27.38300 34127 ft 437 kts 316°
2026-05-07 10:52 38.02353 27.33284 34128 ft 437 kts 315°
2026-05-07 10:53 38.06953 27.28216 34128 ft 437 kts 315°
2026-05-07 10:53 38.11525 27.23171 34128 ft 437 kts 315°
2026-05-07 10:54 38.16075 27.18141 34128 ft 437 kts 315°
2026-05-07 10:54 38.20645 27.13080 34128 ft 437 kts 315°
2026-05-07 10:55 38.25233 27.07991 34128 ft 437 kts 315°
2026-05-07 10:55 38.29790 27.02927 34128 ft 436 kts 316°
2026-05-07 10:56 38.34336 26.97886 34128 ft 435 kts 316°
2026-05-07 10:56 38.38917 26.92838 34128 ft 434 kts 316°
2026-05-07 10:57 38.43466 26.87811 34128 ft 434 kts 316°
2026-05-07 10:57 38.47998 26.82794 34132 ft 434 kts 316°
2026-05-07 10:58 38.52540 26.77757 34137 ft 434 kts 316°
2026-05-07 10:58 38.57085 26.72706 34143 ft 434 kts 316°
2026-05-07 10:59 38.61620 26.67659 34150 ft 434 kts 316°
2026-05-07 10:59 38.66150 26.62608 34154 ft 434 kts 316°
2026-05-07 11:00 38.70691 26.57537 34155 ft 434 kts 316°
2026-05-07 11:00 38.75214 26.52475 34155 ft 434 kts 316°
2026-05-07 11:01 38.79754 26.47387 34155 ft 434 kts 316°
2026-05-07 11:01 38.84176 26.42184 34153 ft 432 kts 311°
2026-05-07 11:02 38.88152 26.36447 34155 ft 431 kts 309°
2026-05-07 11:02 38.92128 26.30721 34155 ft 431 kts 309°
2026-05-07 11:03 38.96101 26.24985 34155 ft 430 kts 309°
2026-05-07 11:03 39.00043 26.19284 34155 ft 429 kts 309°
2026-05-07 11:04 39.04004 26.13546 34155 ft 429 kts 309°
2026-05-07 11:04 39.07939 26.07837 34155 ft 429 kts 309°
2026-05-07 11:05 39.11876 26.02113 34155 ft 429 kts 309°
2026-05-07 11:05 39.15815 25.96377 34155 ft 429 kts 309°
2026-05-07 11:06 39.19784 25.90587 34155 ft 429 kts 309°
2026-05-07 11:06 39.23711 25.84847 34149 ft 429 kts 309°
2026-05-07 11:07 39.27661 25.79064 34143 ft 429 kts 309°
2026-05-07 11:07 39.31564 25.73339 34136 ft 429 kts 309°
2026-05-07 11:08 39.35500 25.67555 34130 ft 429 kts 309°
2026-05-07 11:08 39.39425 25.61775 34128 ft 429 kts 309°
2026-05-07 11:09 39.43349 25.55986 34128 ft 429 kts 309°
2026-05-07 11:09 39.47252 25.50219 34128 ft 429 kts 309°
2026-05-07 11:10 39.51163 25.44428 34128 ft 429 kts 309°
2026-05-07 11:10 39.55071 25.38631 34128 ft 429 kts 309°
2026-05-07 11:11 39.58991 25.32805 34128 ft 429 kts 309°
2026-05-07 11:11 39.62880 25.27010 34128 ft 428 kts 309°
2026-05-07 11:12 39.66799 25.21161 34128 ft 428 kts 309°
2026-05-07 11:12 39.70682 25.15359 34128 ft 429 kts 308°
2026-05-07 11:13 39.74594 25.09506 34128 ft 430 kts 308°
2026-05-07 11:13 39.78484 25.03674 34128 ft 431 kts 307°
2026-05-07 11:14 39.82423 24.97757 34128 ft 433 kts 307°
2026-05-07 11:14 39.86362 24.91825 34128 ft 435 kts 307°
2026-05-07 11:15 39.90273 24.85925 34128 ft 434 kts 307°
2026-05-07 11:15 39.94214 24.79968 34128 ft 434 kts 307°
2026-05-07 11:16 39.98138 24.74025 34128 ft 434 kts 307°
2026-05-07 11:16 40.02070 24.68058 34128 ft 434 kts 307°
2026-05-07 11:17 40.05977 24.62118 34125 ft 434 kts 307°
2026-05-07 11:17 40.09887 24.56163 34119 ft 434 kts 307°
2026-05-07 11:18 40.13797 24.50195 34111 ft 434 kts 307°
2026-05-07 11:18 40.17721 24.44196 34102 ft 434 kts 307°
2026-05-07 11:19 40.21625 24.38214 34101 ft 434 kts 307°
2026-05-07 11:19 40.25518 24.32238 34101 ft 434 kts 306°
2026-05-07 11:20 40.29413 24.26245 34101 ft 433 kts 306°
2026-05-07 11:20 40.33316 24.20230 34101 ft 434 kts 306°
2026-05-07 11:21 40.37214 24.14209 34101 ft 433 kts 306°
2026-05-07 11:21 40.41083 24.08224 34101 ft 434 kts 306°
2026-05-07 11:22 40.44991 24.02167 34101 ft 434 kts 306°
2026-05-07 11:22 40.48862 23.96154 34104 ft 434 kts 306°
2026-05-07 11:23 40.52748 23.90106 34118 ft 434 kts 306°
2026-05-07 11:23 40.56630 23.84054 34132 ft 433 kts 306°
2026-05-07 11:24 40.60487 23.78029 34145 ft 433 kts 306°
2026-05-07 11:24 40.64349 23.71983 34155 ft 433 kts 306°
2026-05-07 11:25 40.68217 23.65917 34155 ft 433 kts 306°
2026-05-07 11:25 40.72101 23.59812 34155 ft 434 kts 306°
2026-05-07 11:26 40.75959 23.53739 34155 ft 434 kts 306°
2026-05-07 11:26 40.79836 23.47621 34155 ft 433 kts 306°
2026-05-07 11:27 40.83674 23.41554 34155 ft 433 kts 306°
2026-05-07 11:27 40.87519 23.35464 34154 ft 433 kts 306°
2026-05-07 11:28 40.91376 23.29339 34156 ft 433 kts 306°
2026-05-07 11:28 40.95220 23.23223 34154 ft 433 kts 306°
2026-05-07 11:29 40.99037 23.17138 34155 ft 432 kts 306°
2026-05-07 11:29 41.02879 23.11003 34154 ft 429 kts 306°
2026-05-07 11:30 41.06659 23.04957 34155 ft 427 kts 307°
2026-05-07 11:30 41.10432 22.98902 34155 ft 427 kts 307°
2026-05-07 11:31 41.14193 22.92853 34154 ft 425 kts 308°
2026-05-07 11:31 41.17955 22.86788 34155 ft 425 kts 308°
2026-05-07 11:32 41.23572 22.77716 34154 ft 426 kts 309°
2026-05-07 11:33 41.27461 22.71735 34156 ft 429 kts 312°
2026-05-07 11:33 41.31488 22.65925 34155 ft 428 kts 311°
2026-05-07 11:34 41.35479 22.60099 34154 ft 427 kts 311°
2026-05-07 11:34 41.39487 22.54232 34157 ft 429 kts 311°
2026-05-07 11:35 41.43465 22.48391 34155 ft 428 kts 311°
2026-05-07 11:35 41.47460 22.42506 34155 ft 428 kts 311°
2026-05-07 11:36 41.51440 22.36634 34154 ft 427 kts 311°
2026-05-07 11:36 41.55398 22.30777 34128 ft 427 kts 311°
2026-05-07 11:37 41.59379 22.24868 34129 ft 428 kts 311°
2026-05-07 11:37 41.63355 22.18963 34126 ft 427 kts 311°
2026-05-07 11:38 41.67308 22.13083 34128 ft 427 kts 311°
2026-05-07 11:38 41.71275 22.07172 34128 ft 428 kts 311°
2026-05-07 11:39 41.75226 22.01271 34126 ft 427 kts 311°
2026-05-07 11:39 41.79203 21.95317 34126 ft 427 kts 311°
2026-05-07 11:40 41.83144 21.89406 34128 ft 427 kts 311°
2026-05-07 11:40 41.87097 21.83470 34127 ft 428 kts 311°
2026-05-07 11:41 41.91030 21.77544 34127 ft 427 kts 311°
2026-05-07 11:41 41.94982 21.71580 34128 ft 427 kts 311°
2026-05-07 11:42 41.98927 21.65613 34128 ft 428 kts 311°
2026-05-07 11:42 42.02850 21.59671 34127 ft 426 kts 311°
2026-05-07 11:43 42.06778 21.53712 34128 ft 428 kts 310°
2026-05-07 11:43 42.10722 21.47714 34128 ft 429 kts 310°
2026-05-07 11:44 42.14657 21.41712 34128 ft 427 kts 311°
2026-05-07 11:44 42.18541 21.35683 34128 ft 427 kts 310°
2026-05-07 11:45 42.22376 21.29578 34127 ft 427 kts 309°
2026-05-07 11:45 42.26200 21.23493 34126 ft 426 kts 309°
2026-05-07 11:46 42.30014 21.17416 34130 ft 426 kts 309°
2026-05-07 11:46 42.33848 21.11302 34128 ft 428 kts 309°
2026-05-07 11:47 42.37685 21.05167 34126 ft 422 kts 310°
2026-05-07 11:47 42.41437 20.99148 34127 ft 416 kts 311°
2026-05-07 11:48 42.45131 20.93195 34128 ft 415 kts 312°
2026-05-07 11:48 42.48856 20.87182 34128 ft 415 kts 313°
2026-05-07 11:49 42.52584 20.81165 34130 ft 418 kts 313°
2026-05-07 11:49 42.56295 20.75163 34127 ft 417 kts 313°
2026-05-07 11:50 42.60001 20.69162 34127 ft 415 kts 313°
2026-05-07 11:50 42.63705 20.63159 34128 ft 415 kts 313°
2026-05-07 11:51 42.67438 20.57098 34128 ft 417 kts 313°
2026-05-07 11:51 42.71139 20.51077 34127 ft 416 kts 313°
2026-05-07 11:52 42.74858 20.45016 34128 ft 417 kts 313°
2026-05-07 11:52 42.78546 20.38989 34126 ft 416 kts 313°
2026-05-07 11:53 42.82247 20.32929 34128 ft 416 kts 313°
2026-05-07 11:53 42.85946 20.26855 34129 ft 418 kts 313°
2026-05-07 11:54 42.89662 20.20742 34125 ft 417 kts 313°
2026-05-07 11:54 42.93333 20.14691 34108 ft 414 kts 313°
2026-05-07 11:55 42.97012 20.08623 34093 ft 414 kts 313°
2026-05-07 11:55 43.00649 20.02609 34085 ft 413 kts 312°
2026-05-07 11:56 43.04296 19.96569 34087 ft 411 kts 312°
2026-05-07 11:56 43.07916 19.90559 34091 ft 411 kts 312°
2026-05-07 11:57 43.11538 19.84532 34085 ft 412 kts 312°
2026-05-07 11:57 43.15192 19.78440 34083 ft 412 kts 312°
2026-05-07 11:58 43.18811 19.72392 34088 ft 412 kts 312°
2026-05-07 11:58 43.22449 19.66343 34095 ft 411 kts 315°
2026-05-07 11:59 43.26593 19.61014 34089 ft 409 kts 320°
2026-05-07 11:59 43.30828 19.55870 34083 ft 409 kts 321°
2026-05-07 12:00 43.35104 19.50785 34084 ft 409 kts 321°
2026-05-07 12:00 43.39405 19.45684 34087 ft 409 kts 321°
2026-05-07 12:01 43.43737 19.40552 34078 ft 409 kts 321°
2026-05-07 12:01 43.48042 19.35449 34060 ft 409 kts 321°
2026-05-07 12:02 43.52352 19.30329 34049 ft 409 kts 321°
2026-05-07 12:02 43.56656 19.25208 34047 ft 409 kts 321°
2026-05-07 12:03 43.60931 19.20116 34047 ft 409 kts 321°
2026-05-07 12:03 43.65205 19.15008 34046 ft 403 kts 321°
2026-05-07 12:04 43.69381 19.09992 34046 ft 391 kts 322°
2026-05-07 12:04 43.73393 19.05157 34047 ft 382 kts 323°
2026-05-07 12:05 43.77361 19.00357 34048 ft 376 kts 323°
2026-05-07 12:05 43.81224 18.95668 34045 ft 367 kts 324°
2026-05-07 12:06 43.85055 18.91018 34047 ft 366 kts 325°
2026-05-07 12:06 43.88903 18.86367 34115 ft 368 kts 325°
2026-05-07 12:07 43.92743 18.81724 34111 ft 367 kts 325°
2026-05-07 12:07 43.96580 18.77080 34116 ft 366 kts 325°
2026-05-07 12:08 44.00402 18.72444 34125 ft 368 kts 325°
2026-05-07 12:08 44.04250 18.67770 34122 ft 368 kts 325°
2026-05-07 12:09 44.08080 18.63111 34119 ft 368 kts 325°
2026-05-07 12:09 44.11951 18.58393 34121 ft 369 kts 325°
2026-05-07 12:10 44.15777 18.53718 34122 ft 367 kts 325°
2026-05-07 12:10 44.19617 18.49017 34128 ft 367 kts 325°
2026-05-07 12:11 44.23438 18.44346 34124 ft 368 kts 325°
2026-05-07 12:11 44.27286 18.39626 34114 ft 368 kts 324°
2026-05-07 12:12 44.31115 18.34921 34101 ft 367 kts 324°
2026-05-07 12:12 44.34920 18.30216 34096 ft 369 kts 324°
2026-05-07 12:13 44.38783 18.25440 34095 ft 368 kts 324°
2026-05-07 12:13 44.42585 18.20734 34102 ft 369 kts 324°
2026-05-07 12:14 44.46439 18.15955 34107 ft 368 kts 324°
2026-05-07 12:14 44.50229 18.11262 34098 ft 366 kts 324°
2026-05-07 12:15 44.54040 18.06530 34068 ft 367 kts 324°
2026-05-07 12:15 44.57867 18.01769 34021 ft 369 kts 324°
2026-05-07 12:16 44.61682 17.97004 33969 ft 369 kts 324°
2026-05-07 12:16 44.65505 17.92224 33940 ft 369 kts 324°
2026-05-07 12:17 44.69324 17.87447 33939 ft 367 kts 324°
2026-05-07 12:17 44.73124 17.82684 33939 ft 369 kts 324°
2026-05-07 12:18 44.76936 17.77885 33939 ft 369 kts 324°
2026-05-07 12:18 44.80774 17.73049 33940 ft 372 kts 324°
2026-05-07 12:19 44.84617 17.68210 33937 ft 371 kts 324°
2026-05-07 12:19 44.88443 17.63378 33936 ft 367 kts 324°
2026-05-07 12:20 44.92247 17.58560 33940 ft 369 kts 324°
2026-05-07 12:20 44.96041 17.53749 33941 ft 370 kts 324°
2026-05-07 12:21 44.99860 17.48909 33938 ft 368 kts 324°
2026-05-07 12:21 45.03674 17.44066 34040 ft 368 kts 323°
2026-05-07 12:22 45.07491 17.39223 34046 ft 372 kts 323°
2026-05-07 12:22 45.11326 17.34344 34048 ft 373 kts 322°
2026-05-07 12:23 45.15179 17.29415 34046 ft 374 kts 322°
2026-05-07 12:23 45.19018 17.24492 34046 ft 373 kts 322°
2026-05-07 12:24 45.22860 17.19555 34047 ft 372 kts 322°
2026-05-07 12:24 45.26684 17.14633 34047 ft 373 kts 322°
2026-05-07 12:25 45.30519 17.09686 34047 ft 373 kts 322°
2026-05-07 12:25 45.34345 17.04743 34047 ft 373 kts 322°
2026-05-07 12:26 45.38168 16.99790 34047 ft 371 kts 322°
2026-05-07 12:26 45.41917 16.94918 34046 ft 366 kts 322°
2026-05-07 12:27 45.45665 16.90035 34047 ft 362 kts 322°
2026-05-07 12:27 45.49351 16.85225 34042 ft 359 kts 322°
2026-05-07 12:28 45.52992 16.80463 34035 ft 355 kts 322°
2026-05-07 12:28 45.56625 16.75707 34027 ft 354 kts 322°
2026-05-07 12:29 45.60251 16.70958 34022 ft 355 kts 322°
2026-05-07 12:29 45.63866 16.66213 34020 ft 355 kts 322°
2026-05-07 12:30 45.67497 16.61441 34020 ft 355 kts 322°
2026-05-07 12:30 45.71116 16.56675 34020 ft 355 kts 322°
2026-05-07 12:31 45.74744 16.51891 34020 ft 355 kts 322°
2026-05-07 12:31 45.78336 16.47146 34020 ft 355 kts 322°
2026-05-07 12:32 45.81966 16.42340 34020 ft 355 kts 322°
2026-05-07 12:32 45.85592 16.37531 34020 ft 355 kts 322°
2026-05-07 12:33 45.91016 16.30299 34020 ft 356 kts 322°
2026-05-07 12:33 45.94609 16.25499 34020 ft 356 kts 322°
2026-05-07 12:34 45.98235 16.20653 34020 ft 355 kts 322°
2026-05-07 12:34 46.01844 16.15824 34020 ft 355 kts 322°
2026-05-07 12:35 46.05456 16.10982 34020 ft 355 kts 322°
2026-05-07 12:35 46.09037 16.06174 34019 ft 355 kts 322°
2026-05-07 12:36 46.12670 16.01289 34004 ft 356 kts 322°
2026-05-07 12:36 46.16264 15.96443 33990 ft 356 kts 322°
2026-05-07 12:37 46.19890 15.91549 33979 ft 356 kts 322°
2026-05-07 12:37 46.23484 15.86689 33970 ft 356 kts 322°
2026-05-07 12:38 46.27088 15.81807 33966 ft 356 kts 322°
2026-05-07 12:38 46.30711 15.76889 33966 ft 356 kts 322°
2026-05-07 12:39 46.34303 15.72004 33966 ft 356 kts 322°
2026-05-07 12:39 46.37896 15.67098 33966 ft 356 kts 322°
2026-05-07 12:40 46.41518 15.62152 33966 ft 356 kts 322°
2026-05-07 12:40 46.45108 15.57249 33966 ft 356 kts 322°
2026-05-07 12:41 46.48700 15.52328 33966 ft 356 kts 322°
2026-05-07 12:41 46.52309 15.47376 33966 ft 356 kts 322°
2026-05-07 12:42 46.55901 15.42435 33966 ft 356 kts 322°
2026-05-07 12:42 46.59462 15.37527 33963 ft 356 kts 322°
2026-05-07 12:43 46.63049 15.32567 33955 ft 357 kts 321°
2026-05-07 12:43 46.66621 15.27600 33947 ft 357 kts 321°
2026-05-07 12:44 46.70215 15.22610 33941 ft 357 kts 321°
2026-05-07 12:44 46.73785 15.17648 33939 ft 357 kts 321°
2026-05-07 12:45 46.77373 15.12653 33939 ft 357 kts 321°
2026-05-07 12:45 46.80936 15.07685 33936 ft 357 kts 321°
2026-05-07 12:46 46.84535 15.02669 33931 ft 359 kts 321°
2026-05-07 12:46 46.88147 14.97631 33925 ft 360 kts 320°
2026-05-07 12:47 46.91773 14.92572 33919 ft 361 kts 320°
2026-05-07 12:47 46.95387 14.87528 33913 ft 361 kts 319°
2026-05-07 12:48 46.99002 14.82470 33912 ft 360 kts 319°
2026-05-07 12:48 47.02614 14.77403 33911 ft 359 kts 318°
2026-05-07 12:49 47.06225 14.72323 33911 ft 359 kts 318°
2026-05-07 12:49 47.09804 14.67267 33912 ft 359 kts 318°
2026-05-07 12:50 47.13394 14.62175 33912 ft 360 kts 318°
2026-05-07 12:50 47.16973 14.57090 33912 ft 359 kts 318°
2026-05-07 12:51 47.20562 14.51978 33912 ft 359 kts 318°
2026-05-07 12:51 47.24136 14.46876 33912 ft 359 kts 318°
2026-05-07 12:52 47.27702 14.41774 33912 ft 359 kts 318°
2026-05-07 12:52 47.31285 14.36639 33912 ft 359 kts 318°
2026-05-07 12:53 47.34858 14.31495 33912 ft 359 kts 317°
2026-05-07 12:53 47.38420 14.26346 33912 ft 360 kts 317°
2026-05-07 12:54 47.41982 14.21203 33912 ft 359 kts 317°
2026-05-07 12:54 47.45555 14.16036 33912 ft 359 kts 317°
2026-05-07 12:55 47.49109 14.10892 33920 ft 359 kts 317°
2026-05-07 12:55 47.52658 14.05742 33939 ft 359 kts 317°
2026-05-07 12:56 47.56198 14.00596 33963 ft 359 kts 317°
2026-05-07 12:56 47.59739 13.95436 33982 ft 359 kts 317°
2026-05-07 12:57 47.63303 13.90238 33992 ft 359 kts 317°
2026-05-07 12:57 47.66836 13.85072 33998 ft 359 kts 317°
2026-05-07 12:58 47.70383 13.79876 34003 ft 359 kts 317°
2026-05-07 12:58 47.73912 13.74695 34005 ft 358 kts 317°
2026-05-07 12:59 47.77465 13.69469 34004 ft 358 kts 317°
2026-05-07 12:59 47.80982 13.64286 34001 ft 358 kts 317°
2026-05-07 13:00 47.84514 13.59069 34001 ft 358 kts 317°
2026-05-07 13:00 47.88030 13.53867 34006 ft 358 kts 317°
2026-05-07 13:01 47.91563 13.48627 34012 ft 358 kts 317°
2026-05-07 13:01 47.95069 13.43416 34018 ft 358 kts 317°
2026-05-07 13:02 47.98589 13.38178 34019 ft 358 kts 317°
2026-05-07 13:02 48.02109 13.32919 34021 ft 359 kts 316°
2026-05-07 13:03 48.05618 13.27645 34020 ft 359 kts 316°
2026-05-07 13:03 48.09144 13.22351 34020 ft 358 kts 317°
2026-05-07 13:04 48.12640 13.17098 34020 ft 359 kts 316°
2026-05-07 13:04 48.16167 13.11803 34020 ft 360 kts 316°
2026-05-07 13:05 48.19715 13.06477 34020 ft 361 kts 315°
2026-05-07 13:05 48.23259 13.01134 34020 ft 362 kts 314°
2026-05-07 13:06 48.26599 12.95518 34020 ft 364 kts 312°
2026-05-07 13:06 48.29948 12.89833 34020 ft 364 kts 312°
2026-05-07 13:07 48.33305 12.84130 34019 ft 364 kts 312°
2026-05-07 13:07 48.36653 12.78435 34020 ft 364 kts 312°
2026-05-07 13:08 48.39993 12.72745 34020 ft 364 kts 312°
2026-05-07 13:08 48.43318 12.67068 34020 ft 364 kts 312°
2026-05-07 13:09 48.46659 12.61351 34020 ft 364 kts 312°
2026-05-07 13:09 48.49992 12.55639 34020 ft 364 kts 312°
2026-05-07 13:10 48.53324 12.49912 34020 ft 364 kts 312°
2026-05-07 13:10 48.56663 12.44163 34020 ft 364 kts 312°
2026-05-07 13:11 48.59971 12.38454 34020 ft 364 kts 312°
2026-05-07 13:11 48.63303 12.32688 34020 ft 364 kts 311°
2026-05-07 13:12 48.66611 12.26927 34020 ft 364 kts 311°
2026-05-07 13:12 48.69944 12.21124 34022 ft 364 kts 311°
2026-05-07 13:13 48.73218 12.15301 34022 ft 364 kts 308°
2026-05-07 13:13 48.75374 12.08338 34025 ft 374 kts 287°
2026-05-07 13:14 48.76150 12.00538 34026 ft 377 kts 285°
2026-05-07 13:14 48.76975 11.92702 34024 ft 377 kts 285°
2026-05-07 13:15 48.77806 11.84839 34022 ft 376 kts 285°
2026-05-07 13:15 48.78634 11.77014 34021 ft 376 kts 285°
2026-05-07 13:16 48.79460 11.69185 34019 ft 377 kts 285°
2026-05-07 13:16 48.80280 11.61361 34019 ft 377 kts 285°
2026-05-07 13:17 48.81093 11.53529 34019 ft 377 kts 285°
2026-05-07 13:17 48.81902 11.45679 34019 ft 376 kts 285°
2026-05-07 13:18 48.82707 11.37823 34019 ft 376 kts 285°
2026-05-07 13:18 48.83511 11.29974 34020 ft 376 kts 287°
2026-05-07 13:19 48.84271 11.26256 34015 ft 368 kts 298°
2026-05-07 13:19 48.85451 11.22875 34025 ft 366 kts 301°
2026-05-07 13:19 48.88323 11.16503 34019 ft 364 kts 315°
2026-05-07 13:20 48.92060 11.11377 34027 ft 364 kts 317°
2026-05-07 13:20 48.95783 11.06191 34032 ft 363 kts 317°
2026-05-07 13:21 48.97629 11.03616 33914 ft 356 kts 316°
2026-05-07 13:21 48.99433 11.01101 33541 ft 347 kts 316°
2026-05-07 13:21 49.01185 10.98668 33125 ft 340 kts 315°
2026-05-07 13:21 49.02903 10.96281 32704 ft 333 kts 315°
2026-05-07 13:22 49.04588 10.93942 32288 ft 327 kts 314°
2026-05-07 13:22 49.06273 10.91594 31874 ft 332 kts 313°
2026-05-07 13:22 49.08002 10.89182 31439 ft 332 kts 313°
2026-05-07 13:22 49.09672 10.86857 31023 ft 326 kts 312°
2026-05-07 13:23 49.11322 10.84550 30614 ft 325 kts 311°
2026-05-07 13:23 49.13018 10.82164 30191 ft 332 kts 311°
2026-05-07 13:23 49.14695 10.79806 29765 ft 327 kts 311°
2026-05-07 13:23 49.16356 10.77470 29347 ft 321 kts 311°
2026-05-07 13:24 49.17983 10.75163 28939 ft 325 kts 311°
2026-05-07 13:24 49.19644 10.72796 28513 ft 326 kts 310°
2026-05-07 13:24 49.21239 10.70365 28094 ft 318 kts 308°
2026-05-07 13:24 49.22748 10.67954 27688 ft 317 kts 308°
2026-05-07 13:25 49.24291 10.65502 27272 ft 323 kts 308°
2026-05-07 13:25 49.25832 10.63071 26850 ft 318 kts 308°
2026-05-07 13:25 49.27364 10.60655 26434 ft 313 kts 308°
2026-05-07 13:25 49.28880 10.58253 26028 ft 317 kts 308°
2026-05-07 13:26 49.30419 10.55812 25604 ft 318 kts 308°
2026-05-07 13:26 49.31926 10.53434 25193 ft 312 kts 308°
2026-05-07 13:26 49.33444 10.51028 24781 ft 312 kts 308°
2026-05-07 13:26 49.34958 10.48617 24369 ft 317 kts 308°
2026-05-07 13:27 49.36404 10.46141 24048 ft 307 kts 302°
2026-05-07 13:27 49.37624 10.43490 24036 ft 308 kts 300°
2026-05-07 13:27 49.38851 10.40764 24039 ft 313 kts 300°
2026-05-07 13:27 49.40114 10.38006 24035 ft 314 kts 300°
2026-05-07 13:28 49.41368 10.35266 24035 ft 314 kts 300°
2026-05-07 13:28 49.42616 10.32526 24036 ft 313 kts 300°
2026-05-07 13:28 49.43861 10.29783 24035 ft 313 kts 300°
2026-05-07 13:28 49.45102 10.27049 24036 ft 313 kts 300°
2026-05-07 13:29 49.46342 10.24320 24036 ft 313 kts 300°
2026-05-07 13:29 49.47592 10.21565 24017 ft 310 kts 300°
2026-05-07 13:29 49.48801 10.18908 23770 ft 302 kts 300°
2026-05-07 13:29 49.49998 10.16264 23411 ft 307 kts 299°
2026-05-07 13:30 49.51228 10.13538 23003 ft 309 kts 300°
2026-05-07 13:30 49.52441 10.10860 22600 ft 304 kts 300°
2026-05-07 13:30 49.53633 10.08223 22204 ft 301 kts 299°
2026-05-07 13:30 49.54837 10.05544 21804 ft 308 kts 300°
2026-05-07 13:31 49.56055 10.02842 21392 ft 303 kts 300°
2026-05-07 13:31 49.57249 10.00193 20994 ft 299 kts 299°
2026-05-07 13:31 49.58431 9.97559 20601 ft 303 kts 299°
2026-05-07 13:31 49.59619 9.94906 20197 ft 302 kts 300°
2026-05-07 13:32 49.60813 9.92248 19795 ft 298 kts 300°
2026-05-07 13:32 49.61977 9.89651 19403 ft 296 kts 300°
2026-05-07 13:32 49.63164 9.86989 19003 ft 302 kts 300°
2026-05-07 13:32 49.64336 9.84359 18600 ft 298 kts 300°
2026-05-07 13:33 49.65495 9.81754 18205 ft 294 kts 300°
2026-05-07 13:33 49.66662 9.79127 17812 ft 298 kts 300°
2026-05-07 13:33 49.67838 9.76482 17406 ft 297 kts 300°
2026-05-07 13:33 49.68991 9.73894 17012 ft 293 kts 300°
2026-05-07 13:34 49.70144 9.71304 16619 ft 291 kts 300°
2026-05-07 13:34 49.72448 9.66109 15829 ft 293 kts 300°
2026-05-07 13:34 49.73593 9.63529 15435 ft 290 kts 300°
2026-05-07 13:35 49.74737 9.60946 15046 ft 290 kts 300°
2026-05-07 13:35 49.75878 9.58361 14653 ft 293 kts 300°
2026-05-07 13:35 49.77014 9.55793 14258 ft 290 kts 300°
2026-05-07 13:35 49.78153 9.53218 13863 ft 287 kts 301°
2026-05-07 13:36 49.79265 9.50715 13462 ft 286 kts 303°
2026-05-07 13:36 49.80567 9.48355 12874 ft 293 kts 309°
2026-05-07 13:36 49.81972 9.46049 12409 ft 292 kts 309°
2026-05-07 13:36 49.83330 9.43759 11946 ft 291 kts 309°
2026-05-07 13:37 49.84692 9.41443 11502 ft 290 kts 309°
2026-05-07 13:37 49.86034 9.39158 11073 ft 288 kts 309°
2026-05-07 13:37 49.87378 9.36860 10606 ft 288 kts 309°
2026-05-07 13:37 49.88726 9.34553 10186 ft 285 kts 308°
2026-05-07 13:38 49.90035 9.32313 10033 ft 274 kts 308°
2026-05-07 13:38 49.91281 9.30177 9722 ft 270 kts 308°
2026-05-07 13:38 49.92455 9.28158 9393 ft 268 kts 308°
2026-05-07 13:38 49.93693 9.26030 9056 ft 265 kts 308°
2026-05-07 13:39 49.94931 9.23941 8722 ft 264 kts 313°
2026-05-07 13:39 49.96476 9.22439 8402 ft 267 kts 337°
2026-05-07 13:39 49.98263 9.21711 8125 ft 265 kts 343°
2026-05-07 13:39 50.00075 9.21043 7847 ft 270 kts 342°
2026-05-07 13:40 50.01880 9.20362 7560 ft 268 kts 342°
2026-05-07 13:40 50.03675 9.19682 7279 ft 264 kts 342°
2026-05-07 13:40 50.05441 9.19009 7009 ft 267 kts 342°
2026-05-07 13:40 50.07258 9.18310 6719 ft 266 kts 342°
2026-05-07 13:41 50.09027 9.17626 6442 ft 262 kts 342°
2026-05-07 13:41 50.10790 9.16942 6249 ft 261 kts 342°
2026-05-07 13:41 50.12495 9.16063 6157 ft 253 kts 327°
2026-05-07 13:41 50.13747 9.14317 5903 ft 241 kts 298°
2026-05-07 13:42 50.14267 9.11912 5582 ft 234 kts 274°
2026-05-07 13:42 50.14384 9.09383 5260 ft 233 kts 271°
2026-05-07 13:42 50.14492 9.06850 5107 ft 228 kts 272°
2026-05-07 13:42 50.14437 9.04461 5105 ft 222 kts 258°
2026-05-07 13:43 50.14096 9.02078 5111 ft 224 kts 253°
2026-05-07 13:43 50.13632 8.99767 5054 ft 226 kts 250°
2026-05-07 13:43 50.13115 8.97457 4924 ft 225 kts 250°
2026-05-07 13:43 50.12603 8.95180 4793 ft 218 kts 250°
2026-05-07 13:44 50.12118 8.93020 4676 ft 207 kts 250°
2026-05-07 13:44 50.11663 8.90982 4575 ft 186 kts 250°
2026-05-07 13:44 50.11245 8.89229 4445 ft 165 kts 248°
2026-05-07 13:44 50.10838 8.87525 4300 ft 170 kts 249°
2026-05-07 13:45 50.10429 8.85798 4065 ft 169 kts 249°
2026-05-07 13:45 50.10021 8.84068 3837 ft 169 kts 249°
2026-05-07 13:45 50.09622 8.82374 3606 ft 168 kts 249°
2026-05-07 13:45 50.09214 8.80646 3369 ft 168 kts 249°
2026-05-07 13:46 50.08812 8.78939 3136 ft 168 kts 249°
2026-05-07 13:46 50.08414 8.77253 2905 ft 167 kts 249°
2026-05-07 13:46 50.08013 8.75556 2674 ft 167 kts 249°
2026-05-07 13:46 50.07613 8.73867 2445 ft 167 kts 249°
2026-05-07 13:47 50.07210 8.72163 2214 ft 167 kts 249°
2026-05-07 13:47 50.06809 8.70469 1985 ft 166 kts 249°
2026-05-07 13:47 50.06422 8.68835 1764 ft 149 kts 249°
2026-05-07 13:47 50.06090 8.67434 1556 ft 133 kts 248°
2026-05-07 13:48 50.05767 8.66078 1418 ft 135 kts 248°
2026-05-07 13:48 50.05439 8.64696 1212 ft 135 kts 248°
2026-05-07 13:48 50.05115 8.63330 1033 ft 135 kts 248°
2026-05-07 13:48 50.04787 8.61954 851 ft 135 kts 249°
2026-05-07 13:49 50.04461 8.60595 668 ft 135 kts 248°
2026-05-07 13:49 50.04132 8.59228 482 ft 134 kts 249°
2026-05-07 13:49 50.03818 8.57889 363 ft 125 kts 249°
2026-05-07 13:49 50.03580 8.56887 342 ft 63 kts 250°
2026-05-07 13:50 50.03458 8.56372 341 ft 40 kts 250°
2026-05-07 13:50 50.03365 8.55995 337 ft 34 kts 251°
2026-05-07 13:50 50.03287 8.55671 334 ft 29 kts 239°
2026-05-07 13:50 50.03179 8.55509 334 ft 5 kts 220°
2026-05-07 13:51 50.03177 8.55508 334 ft 0 kts 220°
2026-05-07 13:51 50.03165 8.55492 334 ft 4 kts 220°
2026-05-07 13:52 50.03129 8.55444 335 ft 8 kts 221°
2026-05-07 13:52 50.03073 8.55370 335 ft 13 kts 220°
2026-05-07 13:52 50.02997 8.55272 334 ft 14 kts 195°
2026-05-07 13:52 50.02934 8.55319 335 ft 9 kts 129°
2026-05-07 13:53 50.02925 8.55457 338 ft 17 kts 73°
2026-05-07 13:53 50.02999 8.55640 337 ft 22 kts 50°
2026-05-07 13:53 50.03064 8.55830 339 ft 22 kts 70°
2026-05-07 13:53 50.03116 8.56070 339 ft 24 kts 76°
2026-05-07 13:54 50.03152 8.56293 340 ft 15 kts 75°
2026-05-07 13:54 50.03175 8.56418 340 ft 13 kts 71°
2026-05-07 13:54 50.03226 8.56609 341 ft 20 kts 68°
2026-05-07 13:54 50.03272 8.56795 341 ft 15 kts 95°
2026-05-07 13:55 50.03193 8.56877 341 ft 14 kts 170°
2026-05-07 13:55 50.03074 8.56927 342 ft 19 kts 168°
2026-05-07 13:55 50.03011 8.56830 344 ft 17 kts 257°
2026-05-07 13:55 50.02966 8.56658 345 ft 16 kts 237°
2026-05-07 13:56 50.02938 8.56518 345 ft 7 kts 263°